Regional Weather Roundup
Issued by NWS

Home | Current Version | Previous Version | Graphics & Text | Print | Product List | Glossary Off
Versions: 1 2 3 4 5 6 7 8 9 10 11 12 13 14 15 16 17 18 19 20 21 22 23 24 25 26 27 28 29 30 31 32 33 34 35 36 37 38 39 40 41 42 43 44 45 46 47 48 49 50

000
ASUS43 KMPX 100310
RWRMN
WEATHER ROUNDUP FOR MINNESOTA
NATIONAL WEATHER SERVICE TWIN CITIES/CHANHASSEN MN
900 PM CST TUE FEB 09 2016


NOTE: "FAIR" INDICATES FEW OR NO CLOUDS BELOW 12,000 FEET WITH NO
SIGNIFICANT WEATHER AND/OR OBSTRUCTIONS TO VISIBILITY. N/A MEANS
CURRENT SKY AND/OR WEATHER CONDITIONS ARE NOT AVAILABLE.

MNZ060>063-068>070-100400-
   Twin Cities Metro

CITY           SKY/WX    TMP DP  RH WIND       PRES   REMARKS
TWIN CITIES    PTCLDY    12  -2  53 N12       30.14F WCI  -2
ST PAUL        CLEAR     11  -3  53 NW13      30.15F WCI  -4
CRYSTAL        CLEAR     11  -2  56 N8        30.13F WCI  -1
BLAINE         CLEAR     10  -2  56 NW10G17   30.12F WCI  -3
LAKEVILLE      CLEAR      7  -2  66 W5        30.12F WCI  -2
EDEN PRAIRIE   CLEAR     11  -2  56 NW5       30.13S WCI   3
SOUTH ST PAUL  CLEAR     12  -3  50 N9        30.13F WCI   0
LAKE ELMO      FAIR      10  -4  52 NW7       30.13F WCI   0
$$
MNZ001>005-007-008-013>017-022>024-027-028-100400-
   Northwest Minnesota

CITY           SKY/WX    TMP DP  RH WIND       PRES   REMARKS
BEMIDJI        CLOUDY    -5  -9  84 W6        30.15S WCI -18
HALLOCK        CLOUDY     0  -6  78 NE8       30.24F WCI -15
ROSEAU         CLOUDY    -4  -9  77 NW6       30.21F WCI -16
WARROAD        CLOUDY    -2  -9  71 NW7       30.20F WCI -16
THIEF RVR FALL CLOUDY     0  -8  71 N7        30.22F WCI -13
CROOKSTON      CLOUDY     1  -2  85 N7        30.26F WCI -11
FOSSTON          N/A     -8 -13  77 CALM      30.21R
DETROIT LAKES  FLURRIES   1   0  92 NW7       30.18R WCI -11
MOORHEAD       CLEAR      7   1  78 N7        30.24S WCI  -5
PARK RAPIDS    CLOUDY    -5 -11  75 NW8       30.14R WCI -20
MAHNOMEN       FAIR      -1  -4  87 N7        30.20R WCI -15
$$
MNZ006-009>011-018-025>026-100400-
   North Central Minnesota

CITY           SKY/WX    TMP DP  RH WIND       PRES   REMARKS
BAUDETTE       CLOUDY    -2 -11  65 N6        30.17S WCI -14
FLAG ISLAND    CLOUDY    -6  -9  84 NW12      30.20S WCI -24
INTL FALLS     CLOUDY    -6 -10  83 N7        30.16R WCI -20
WASKISH        CLOUDY    -4  -8  84 NW5       30.18R WCI -15
LONGVILLE      CLOUDY     0  -6  78 W3        30.14R
GRAND RAPIDS   CLEAR      0  -9  65 N13       30.11R WCI -18
CRANE LAKE     CLOUDY   -13 -17  84 CALM      30.16S
ORR            CLOUDY    -4  -9  77 CALM      30.09S
COOK           CLOUDY    -2  -8  78 NW3       30.11S
WALKER         FAIR      -1  -7  76 W3        30.15R
$$
MNZ012-019>021-037-100400-
   Northeast Minnesota

CITY           SKY/WX    TMP DP  RH WIND       PRES   REMARKS
DULUTH         CLEAR      1  -8  66 N14G22    30.05S WCI -17
ELY            CLOUDY     0  -6  78 N9        30.07S WCI -16
HIBBING        CLEAR     -3  -9  75 NW8       30.09S WCI -18
EVELETH        CLEAR      3  -6  66 N7        30.09F WCI  -9
DULUTH HARBOR  CLEAR      9  -2  61 N16       30.15S WCI  -9
TWO HARBORS    CLEAR      3  -4  72 NE3       30.07R
SILVER BAY     CLEAR      1  -8  66 NW5       30.06R WCI  -8
GRAND MARAIS     N/A      3  -8  60 VRB3      30.11S
G MARAIS ARPRT CLEAR     -6 -11  77 NW14G24   29.95S WCI -26
$$
MNZ029>031-032-039>041-046>048-054>057-064-100400-
   West Central Minnesota

CITY           SKY/WX    TMP DP  RH WIND       PRES   REMARKS
FERGUS FALLS   CLOUDY     7   1  78 NW8       30.23S WCI  -6
WHEATON        CLOUDY    12   7  79 NW7       30.23R WCI   2
MORRIS         CLOUDY    12   7  79 N7        30.17F WCI   2
ALEXANDRIA     CLEAR      5  -1  76 N7        30.15S WCI  -7
ELBOW LAKE     CLOUDY     9   3  77 NW7       30.19S WCI  -3
WADENA         CLOUDY     0  -4  85 NW6       30.15S WCI -12
GLENWOOD       CLEAR      3  -2  78 NW7       30.15F WCI  -9
APPLETON       CLOUDY    14   7  73 NW7       30.19F WCI   4
BENSON         CLOUDY    12   5  73 N3        30.18S
ORTONVILLE     CLOUDY    12   7  79 NW7       30.19F WCI   2
MADISON        CLOUDY    16   9  73 N8        30.20S WCI   5
WILLMAR        FAIR      10   5  79 NW8       30.17F WCI  -1
$$
MNZ033>034-036-042>043-049>051-058-059-100400-
   Central Minnesota

CITY           SKY/WX    TMP DP  RH WIND       PRES   REMARKS
ST CLOUD       CLEAR      7  -1  70 NW6       30.13F WCI  -3
SAUK CENTRE    FAIR       5  -1  75 NW10      30.15S WCI -10
PAYNESVILLE    CLEAR      7   1  75 NW7       30.16S WCI  -5
AITKIN         CLEAR      3  -8  60 NW5       30.11S WCI  -6
PINE RIVER     CLOUDY     1  -4  78 NW5       30.17S WCI  -8
BRAINERD       CLEAR      2  -7  66 N9        30.14S WCI -13
STAPLES        CLOUDY     0  -6  78 NW5       30.15R WCI -10
LONG PRAIRIE   FAIR       3  -2  78 W8        30.14S WCI -10
LITTLE FALLS   CLEAR      9  -4  56 NW3       30.15S
LITCHFIELD     CLEAR     10   1  67 NW8       30.15F WCI  -1
BUFFALO        CLEAR     10   1  66 NW6       30.15S WCI   0
MAPLE LAKE     CLEAR     10   3  72 NW7       30.14F WCI   0
$$
MNZ037-044-045-052-053-100400-
   East Central Minnesota

CITY           SKY/WX    TMP DP  RH WIND       PRES   REMARKS
PRINCETON      CLEAR      9  -4  56 NW5       30.13S WCI   0
MORA           CLEAR      7  -4  61 NW12      30.14F WCI  -9
CAMBRIDGE      CLEAR     10  -2  56 NW7       30.11F WCI   0
RUSH CITY      MOCLDY     7  -3  61 NW7       30.13S WCI  -4
MOOSE LAKE     CLEAR      5  -6  61 N7        30.09F WCI  -7
HINCKLEY       FAIR       7  -4  61 NW8       30.11F WCI  -6
CLOQUET        CLEAR      3  -8  60 NW14      30.07F WCI -15
MCGREGOR       CLEAR      3  -4  72 NW9       30.11F WCI -11
$$
MNZ071>073-080-081-089-090-097-098-100400-
   Southwest Minnesota

CITY           SKY/WX    TMP DP  RH WIND       PRES   REMARKS
MONTEVIDEO     CLOUDY    14   9  79 N8        30.20F WCI   3
GRANITE FALLS  CLOUDY    17  10  74 NW8       30.20S WCI   6
CANBY          CLOUDY    20  15  78 N6        30.19S WCI  13
MARSHALL       CLOUDY    16  10  77 N10       30.18F WCI   4
REDWOOD FALLS  MOCLDY    14   6  70 NW9       30.18F WCI   2
OLIVIA         CLEAR     12   7  79 NW6       30.17S WCI   3
PIPESTONE      CLOUDY    21   9  58 NW3       30.13F
WINDOM         CLEAR     16  10  79 NW15      30.14F WCI   1
WORTHINGTON    CLOUDY    18   9  68 NW9       30.15F WCI   6
JACKSON        CLOUDY    18  10  73 NW16      30.13F WCI   3
TRACY          CLOUDY    18  12  79 N10       30.17S WCI   6
SLAYTON        CLOUDY    17  13  86 NW6       30.15S WCI   8
$$
MNZ065>067-074>077-082>085-091>093-100400-
   South Central Minnesota

CITY           SKY/WX    TMP DP  RH WIND       PRES   REMARKS
MANKATO        CLEAR     10   1  67 NW7       30.13F WCI   0
NEW ULM        CLEAR     10   5  79 NW14      30.15S WCI  -5
ST JAMES       CLEAR     10   7  85 NW6       30.16F WCI   1
FAIRMONT       CLEAR     10   3  72 NW8       30.14S WCI  -1
GLENCOE        CLEAR     11   4  73 NW8       30.14S WCI   0
FARIBAULT        N/A      9   0  66 W5        30.12F WCI   0
OWATONNA       CLEAR      7  -2  66 NW7       30.11S WCI  -5
WASECA         CLEAR     10   3  72 NW9       30.13F WCI  -2
ALBERT LEA     CLEAR     10   1  67 NW12G17   30.10F WCI  -4
$$
MNZ078>079-086>088-094>096-100400-
   Southeast Minnesota

CITY           SKY/WX    TMP DP  RH WIND       PRES   REMARKS
ROCHESTER      CLEAR      7  -3  64 NW15      30.06S WCI -10
RED WING       CLEAR     10  -6  48 NW6       30.11S WCI   1
STANTON        CLEAR      8  -2  64 NW8       30.11F WCI  -5
DODGE CENTER   PTCLDY     7  -2  66 NW12      30.07F WCI  -9
WINONA         CLEAR     12   1  62 NW13      30.11S WCI  -3
AUSTIN         CLOUDY     9   0  66 NW12      30.08S WCI  -6
PRESTON        CLEAR      5  -4  66 NW13      30.06S WCI -12
$$
ABBREVIATIONS USED IN REMARKS
   TC - TEMPERATURES IN CELSIUS
  WCI - WIND CHILL INDEX
   HX - HEAT INDEX
  VSB - VISIBILITY
$$



USA.gov is the U.S. government's official web portal to all federal, state and local government web resources and services.